Weather History for KT82 - February, 2013

Change the Weather History Date:

Sunday, February 10, 2013

  Actual Average (KSAT) Record (KSAT)
Temperature  
Mean Temperature 58 °F 55 °F  
Max Temperature 66 °F 66 °F 88 °F (1954)
Min Temperature 50 °F 43 °F 19 °F (1899)
Degree Days  
Heating Degree Days 7 11  
Month to date heating degree days 117  
Since 1 July heating degree days 1135  
Cooling Degree Days 0 1  
Month to date cooling degree days 6  
Year to date cooling degree days 13  
Growing Degree Days 8 (Base 50)    
Moisture  
Dew Point 39 °F    
Average Humidity 54    
Maximum Humidity 100    
Minimum Humidity 26    
Precipitation  
Precipitation 0.11 in 0.06 in 1.56 in (1993)
Month to date precipitation 0.62  
Year to date precipitation 2.38  
Snow  
Snow 0.00 in - - ()
Month to date snowfall  
Since 1 July snowfall  
Snow Depth -    
Sea Level Pressure  
Sea Level Pressure 29.90 in    
Wind  
Wind Speed 7 mph (NNW)    
Max Wind Speed 15 mph    
Max Gust Speed 25 mph    
Visibility 9 miles    
Events Rain , Thunderstorm    
T = Trace of Precipitation, MM = Missing Value Source: NWS Daily Summary

Daily Weather History Graph

Daily Weather History Graph

Search for Another Location

Airport or City:

Trip Planner

Search our weather history database for the weather conditions in past years. The results will help you decide how hot, cold, wet, or windy it might be!

Date:

Astronomy

Feb. 10, 2013 Rise Set
Actual Time 7:19 AM CST 6:20 PM CST
Civil Twilight 6:55 AM CST 6:45 PM CST
Nautical Twilight 6:26 AM CST 7:13 PM CST
Astronomical Twilight 5:58 AM CST 7:41 PM CST
Moon 7:15 AM CST (2/10) 7:05 PM CST (2/10)
Length of Visible Light 11h 50m
Length of Day
11h 00m
New Moon, 0% of the Moon is Illuminated
Feb 10
New Moon
Feb 17
First Quarter
Feb 25
Full
Mar 4
Last Quarter
Mar 11
New

Hourly Weather History & Observations

Time (CST) Temp. Dew Point Humidity Pressure Visibility Wind Dir Wind Speed Gust Speed Precip Events Conditions
12:15 AM 66.2 °F 65.3 °F 97% 29.80 in 10.0 mi South 9.2 mph 16.1 mph N/A Thunderstorm Overcast
12:35 AM 66.2 °F 65.3 °F 97% 29.79 in 10.0 mi South 8.1 mph - N/A Thunderstorm Overcast
12:55 AM 66.2 °F 64.9 °F 96% 29.80 in 10.0 mi SSW 9.2 mph - N/A Thunderstorm Overcast
1:15 AM 66.2 °F 64.9 °F 96% 29.79 in 10.0 mi SSW 4.6 mph - N/A   Overcast
1:35 AM 66.0 °F 65.1 °F 97% 29.79 in 7.0 mi SSE 4.6 mph - N/A Rain , Thunderstorm Thunderstorms and Rain
1:55 AM 65.1 °F 65.1 °F 100% 29.80 in 4.0 mi West 9.2 mph - 0.03 in Rain , Thunderstorm Thunderstorms and Rain
2:15 AM 60.8 °F 60.8 °F 100% 29.79 in 4.0 mi SSW 6.9 mph 16.1 mph 0.06 in Rain , Thunderstorm Rain
2:35 AM 61.5 °F 61.5 °F 100% 29.78 in 5.0 mi SSE 6.9 mph - 0.07 in   Drizzle
2:55 AM 64.8 °F 64.8 °F 100% 29.78 in 7.0 mi South 6.9 mph - 0.07 in   Drizzle
3:15 AM 65.5 °F 65.5 °F 100% 29.78 in 5.0 mi SSW 11.5 mph 17.3 mph 0.01 in   Overcast
3:35 AM 65.5 °F 65.5 °F 100% 29.78 in 4.0 mi SSW 10.4 mph 18.4 mph 0.01 in Rain Light Rain
3:55 AM 65.7 °F 65.7 °F 100% 29.79 in 5.0 mi SW 11.5 mph - 0.01 in   Overcast
4:15 AM 66.2 °F 66.2 °F 100% 29.81 in 7.0 mi West 6.9 mph - N/A   Overcast
4:35 AM 58.5 °F 52.7 °F 81% 29.83 in 10.0 mi North 13.8 mph 25.3 mph N/A   Overcast
4:55 AM 55.8 °F 48.2 °F 76% 29.85 in 10.0 mi NNW 15.0 mph 20.7 mph N/A Rain Light Rain
5:15 AM 53.4 °F 47.5 °F 80% 29.86 in 10.0 mi NW 13.8 mph - N/A Rain Light Rain
5:35 AM 53.1 °F 43.7 °F 71% 29.86 in 10.0 mi WNW 5.8 mph - N/A   Scattered Clouds
5:55 AM 52.3 °F 42.4 °F 69% 29.87 in 10.0 mi NW 6.9 mph - N/A   Mostly Cloudy
6:15 AM 53.8 °F 37.8 °F 55% 29.87 in 10.0 mi Calm Calm - N/A   Overcast
6:35 AM 53.8 °F 37.2 °F 54% 29.87 in 10.0 mi Calm Calm - N/A   Overcast
6:55 AM 53.6 °F 37.4 °F 54% 29.88 in 10.0 mi WNW 5.8 mph - N/A   Overcast
7:15 AM 53.1 °F 34.9 °F 50% 29.89 in 10.0 mi Calm Calm - N/A   Scattered Clouds
7:35 AM 53.4 °F 32.9 °F 46% 29.89 in 10.0 mi NW 5.8 mph - N/A   Scattered Clouds
7:55 AM 53.2 °F 32.2 °F 45% 29.90 in 10.0 mi WNW 8.1 mph 19.6 mph N/A   Scattered Clouds
8:15 AM 54.0 °F 30.2 °F 40% 29.91 in 10.0 mi WNW 4.6 mph - N/A   Scattered Clouds
8:35 AM 54.0 °F 29.7 °F 39% 29.92 in 10.0 mi NW 9.2 mph - N/A   Clear
8:55 AM 54.5 °F 30.0 °F 39% 29.92 in 10.0 mi NW 4.6 mph - N/A   Clear
9:15 AM 55.0 °F 29.7 °F 38% 29.93 in 10.0 mi NW 5.8 mph - N/A   Clear
9:35 AM 55.6 °F 30.0 °F 38% 29.94 in 10.0 mi NW 10.4 mph 16.1 mph N/A   Clear
9:55 AM 55.6 °F 28.6 °F 36% 29.96 in 10.0 mi NW 6.9 mph 16.1 mph N/A   Clear
10:15 AM 56.5 °F 29.3 °F 35% 29.96 in 10.0 mi NW 10.4 mph - N/A   Clear
10:35 AM 56.5 °F 28.4 °F 34% 29.97 in 10.0 mi NW 11.5 mph 17.3 mph N/A   Scattered Clouds
10:55 AM 55.9 °F 27.7 °F 34% 29.97 in 10.0 mi NNW 10.4 mph - N/A   Mostly Cloudy
11:15 AM 56.3 °F 27.7 °F 33% 29.97 in 10.0 mi NNW 6.9 mph - N/A   Mostly Cloudy
11:35 AM 57.0 °F 27.7 °F 33% 29.97 in 10.0 mi NNW 6.9 mph - N/A   Overcast
11:55 AM 58.1 °F 27.7 °F 31% 29.96 in 10.0 mi NW 10.4 mph - N/A   Mostly Cloudy
12:15 PM 57.6 °F 26.6 °F 31% 29.94 in 10.0 mi NNW 9.2 mph - N/A   Scattered Clouds
12:35 PM 58.3 °F 27.7 °F 31% 29.94 in 10.0 mi NNW 9.2 mph - N/A   Mostly Cloudy
12:55 PM 59.2 °F 28.2 °F 31% 29.93 in 10.0 mi NNW 11.5 mph - N/A   Mostly Cloudy
1:15 PM 59.7 °F 28.0 °F 30% 29.91 in 10.0 mi NNW 8.1 mph - N/A   Mostly Cloudy
1:35 PM 60.3 °F 27.9 °F 29% 29.91 in 10.0 mi NNW 11.5 mph - N/A   Mostly Cloudy
1:55 PM 60.8 °F 28.0 °F 29% 29.91 in 10.0 mi North 9.2 mph - N/A   Overcast
2:15 PM 61.9 °F 30.0 °F 30% 29.90 in 10.0 mi NW 9.2 mph - N/A   Overcast
2:35 PM 63.3 °F 28.4 °F 27% 29.89 in 10.0 mi North 8.1 mph - N/A   Scattered Clouds
2:55 PM 62.8 °F 29.3 °F 28% 29.89 in 10.0 mi NNW 5.8 mph 9.2 mph N/A   Scattered Clouds
3:15 PM 63.7 °F 28.4 °F 26% 29.89 in 10.0 mi North 5.8 mph - N/A   Scattered Clouds
3:35 PM 63.9 °F 29.1 °F 27% 29.89 in 10.0 mi NNW 9.2 mph - N/A   Overcast
3:55 PM 63.9 °F 28.0 °F 26% 29.89 in 10.0 mi NNW 6.9 mph - N/A   Overcast
4:15 PM 64.4 °F 28.8 °F 26% 29.89 in 10.0 mi North 5.8 mph - N/A   Overcast
4:35 PM 63.7 °F 29.5 °F 28% 29.90 in 10.0 mi NNW 5.8 mph - N/A   Overcast
4:55 PM 63.5 °F 28.4 °F 27% 29.90 in 10.0 mi NNW 8.1 mph - N/A   Overcast
5:15 PM 62.8 °F 29.8 °F 29% 29.91 in 10.0 mi NNW 6.9 mph - N/A   Mostly Cloudy
5:35 PM 61.9 °F 30.4 °F 31% 29.91 in 10.0 mi North 5.8 mph - N/A   Scattered Clouds
5:55 PM 60.6 °F 31.5 °F 33% 29.92 in 10.0 mi NNE 4.6 mph - N/A   Scattered Clouds
6:15 PM 59.2 °F 31.8 °F 36% 29.93 in 10.0 mi NE 3.5 mph - N/A   Scattered Clouds
6:35 PM 58.3 °F 32.4 °F 38% 29.93 in 10.0 mi NNE 4.6 mph - N/A   Scattered Clouds
6:55 PM 58.3 °F 31.8 °F 37% 29.93 in 10.0 mi Calm Calm - N/A   Clear
7:15 PM 56.8 °F 34.9 °F 44% 29.94 in 10.0 mi NE 3.5 mph - N/A   Clear
7:35 PM 55.6 °F 35.6 °F 47% 29.94 in 10.0 mi NE 3.5 mph - N/A   Clear
7:55 PM 54.9 °F 35.4 °F 48% 29.94 in 10.0 mi NE 4.6 mph - N/A   Clear
8:15 PM 54.9 °F 35.4 °F 48% 29.95 in 10.0 mi NNE 4.6 mph - N/A   Clear
8:35 PM 55.6 °F 33.3 °F 43% 29.96 in 10.0 mi Calm Calm - N/A   Clear
8:55 PM 54.0 °F 37.6 °F 54% 29.97 in 10.0 mi Calm Calm - N/A   Clear
9:15 PM 53.8 °F 37.6 °F 54% 29.97 in 10.0 mi NE 3.5 mph - N/A   Clear
9:35 PM 53.6 °F 39.6 °F 59% 29.99 in 10.0 mi Calm Calm - N/A   Clear
9:55 PM 54.0 °F 38.8 °F 57% 29.99 in 10.0 mi Calm Calm - N/A   Clear
10:15 PM 52.7 °F 39.0 °F 60% 30.02 in 10.0 mi South 3.5 mph - N/A   Scattered Clouds
10:35 PM 51.8 °F 40.8 °F 66% 30.02 in 10.0 mi Calm Calm - N/A   Scattered Clouds
10:55 PM 50.7 °F 42.3 °F 73% 30.01 in 10.0 mi NNW 3.5 mph - N/A   Clear
11:15 PM 51.4 °F 41.7 °F 69% 30.02 in 10.0 mi Calm Calm - N/A   Clear
11:35 PM 51.3 °F 43.0 °F 73% 30.02 in 10.0 mi Calm Calm - N/A   Mostly Cloudy
11:55 PM 51.4 °F 41.0 °F 68% 30.00 in 10.0 mi NE 3.5 mph - N/A   Mostly Cloudy